Los Angeles, CA

2:57 AM PDT on September 30, 2016 (GMT -0700)
Los Angeles International

Weather History for KLAX - December, 2012

Change the Weather History Date:

Tuesday, December 25, 2012

  Actual Average Record
Temperature  
Mean Temperature 56 °F 56 °F  
Max Temperature 62 °F 64 °F 83 °F (1947)
Min Temperature 49 °F 48 °F 35 °F (1974)
Degree Days  
Heating Degree Days 9 9  
Month to date heating degree days 182 210  
Since 1 July heating degree days 286 392  
Cooling Degree Days 0 0  
Month to date cooling degree days 0 0  
Year to date cooling degree days 735 550  
Growing Degree Days 5 (Base 50)    
Moisture  
Dew Point 47 °F    
Average Humidity 71    
Maximum Humidity 96    
Minimum Humidity 46    
Precipitation  
Precipitation 0.00 in 0.08 in 1.78 in (1946)
Month to date precipitation 2.10 1.54  
Year to date precipitation 8.17 12.31  
Since 1 July precipitation 3.56  
Sea Level Pressure  
Sea Level Pressure 30.06 in    
Wind  
Wind Speed 4 mph (NNE)    
Max Wind Speed 13 mph    
Max Gust Speed 16 mph    
Visibility 8 miles    
Events Fog    
T = Trace of Precipitation, MM = Missing Value Source: NWS Daily Summary

Daily Weather History Graph

Daily Weather History Graph

Search for Another Location

Airport or City:

Trip Planner

Search our weather history database for the weather conditions in past years. The results will help you decide how hot, cold, wet, or windy it might be!

Date:

Astronomy

Dec. 25, 2012 Rise Set
Actual Time 6:56 AM PST 4:51 PM PST
Civil Twilight 6:29 AM PST 5:18 PM PST
Nautical Twilight 5:57 AM PST 5:50 PM PST
Astronomical Twilight 5:27 AM PST 6:20 PM PST
Moon 3:01 PM PST (12/25) 4:35 AM PST (12/25)
Length of Visible Light 10h 49m
Length of Day
9h 54m
Waxing Gibbous, 94% of the Moon is Illuminated
Dec 25
Waxing Gibbous
Dec 28
Full
Jan 4
Last Quarter
Jan 11
New
Jan 18
First Quarter

Hourly Weather History & Observations

Time (PST) Temp. Dew Point Humidity Pressure Visibility Wind Dir Wind Speed Gust Speed Precip Events Conditions
12:53 AM 52.0 °F 45.0 °F 77% 30.08 in 9.0 mi NE 3.5 mph - N/A   Scattered Clouds
1:39 AM 50.0 °F 48.2 °F 94% 30.09 in 1.0 mi NE 3.5 mph - N/A Fog Patches of Fog
1:44 AM 51.8 °F 48.2 °F 88% 30.09 in 1.2 mi Variable 3.5 mph - N/A Fog Patches of Fog
1:51 AM 51.8 °F 48.2 °F 88% 30.09 in 1.5 mi ENE 3.5 mph - N/A Fog Patches of Fog
1:53 AM 51.1 °F 48.9 °F 92% 30.09 in 1.5 mi NE 4.6 mph - N/A Fog Patches of Fog
2:01 AM 51.8 °F 48.2 °F 88% 30.09 in 2.5 mi Calm Calm - N/A Fog Patches of Fog
2:47 AM 51.8 °F 50.0 °F 94% 30.10 in 2.0 mi East 3.5 mph - N/A Fog Patches of Fog
2:53 AM 51.1 °F 50.0 °F 96% 30.09 in 2.0 mi East 4.6 mph - N/A Fog Patches of Fog
3:53 AM 51.1 °F 50.0 °F 96% 30.09 in 4.0 mi East 4.6 mph - N/A Fog Patches of Fog
4:33 AM 51.8 °F 48.2 °F 88% 30.09 in 8.0 mi ENE 4.6 mph - N/A Fog Patches of Fog
4:53 AM 50.0 °F 46.4 °F 87% 30.09 in 8.0 mi Variable 6.9 mph - N/A Fog Patches of Fog
5:46 AM 50.0 °F 46.4 °F 87% 30.09 in 8.0 mi Variable 3.5 mph - N/A Fog Patches of Fog
5:53 AM 50.0 °F 46.0 °F 86% 30.09 in 8.0 mi ENE 3.5 mph - N/A Fog Patches of Fog
6:53 AM 51.1 °F 46.9 °F 86% 30.09 in 9.0 mi ENE 3.5 mph - N/A Fog Patches of Fog
7:53 AM 53.1 °F 44.1 °F 71% 30.09 in 10.0 mi ENE 4.6 mph - N/A   Mostly Cloudy
8:53 AM 55.0 °F 46.9 °F 74% 30.10 in 9.0 mi NE 5.8 mph - N/A   Overcast
9:53 AM 55.9 °F 48.0 °F 75% 30.10 in 10.0 mi NE 5.8 mph - N/A   Mostly Cloudy
10:53 AM 57.9 °F 46.9 °F 67% 30.09 in 10.0 mi Variable 4.6 mph - N/A   Mostly Cloudy
11:53 AM 60.1 °F 45.0 °F 57% 30.08 in 10.0 mi North 5.8 mph - N/A   Overcast
12:53 PM 61.0 °F 39.0 °F 44% 30.06 in 10.0 mi North 4.6 mph - N/A   Overcast
1:53 PM 61.0 °F 43.0 °F 52% 30.03 in 10.0 mi NW 3.5 mph - N/A   Overcast
2:53 PM 59.0 °F 46.9 °F 64% 30.02 in 10.0 mi WNW 9.2 mph - N/A   Overcast
3:53 PM 57.9 °F 48.9 °F 72% 30.02 in 10.0 mi West 6.9 mph - N/A   Overcast
4:53 PM 57.0 °F 46.9 °F 69% 30.00 in 10.0 mi West 4.6 mph - N/A   Mostly Cloudy
5:53 PM 57.0 °F 48.9 °F 74% 30.02 in 10.0 mi WNW 5.8 mph - N/A   Mostly Cloudy
6:53 PM 55.9 °F 50.0 °F 80% 30.00 in 10.0 mi Calm Calm - N/A   Mostly Cloudy
7:53 PM 55.9 °F 50.0 °F 80% 30.01 in 10.0 mi NNW 4.6 mph - N/A   Mostly Cloudy
8:53 PM 54.0 °F 50.0 °F 86% 30.01 in 10.0 mi Calm Calm - N/A   Mostly Cloudy
9:53 PM 55.0 °F 45.0 °F 69% 30.02 in 10.0 mi Calm Calm - N/A   Overcast
10:53 PM 55.0 °F 48.0 °F 77% 30.01 in 10.0 mi Variable 3.5 mph - N/A   Scattered Clouds
11:46 PM 53.6 °F 48.2 °F 82% 30.01 in 10.0 mi Calm Calm - N/A   Mostly Cloudy
11:53 PM 53.1 °F 48.0 °F 83% 30.01 in 10.0 mi NE 5.8 mph - N/A   Mostly Cloudy